Location: Newark
(43.0000°N, 1.6781°W)
Time: 09:29:53
(UTC+00:00)

AO-7 - Pass Details

Date: 09 December 2022
Orbit: 1440 x 1459 km, 101.9° (Epoch: 28 January)

Event Time Altitude Azimuth Distance (km) Brightness Sun altitude
Rises 02:44:51 0° 37° (NE) 4,546 ? -50.3°
Reaches altitude 10° 02:50:49 10° 70° (ENE) 3,565 ? -49.2°
Maximum altitude 02:52:58 11° 86° (E) 3,477 ? -48.9°
Drops below altitude 10° 02:55:07 10° 101° (ESE) 3,563 ? -48.5°
Sets 03:01:01 0° 134° (SE) 4,539 ? -47.4°
